Time,TemperatureF,DewpointF,PressureIn,WindDirection,WindDirectionDegrees,WindSpeedMPH,WindSpeedGustMPH,Humidity,HourlyPrecipIn,Conditions,Clouds,dailyrainin,SoftwareType,DateUTC
2013-11-29 00:14:00,10.8,10.1,29.99,WNW,292,0.0,-999.0,97,-99.99,,,0.00,Acu-Link.com,2013-11-29 07:14:00,
2013-11-29 00:29:00,10.6,10.1,29.99,ESE,112,0.0,-999.0,98,-99.99,,,0.00,Acu-Link.com,2013-11-29 07:29:00,
2013-11-29 00:44:00,10.4,9.9,29.99,NE,45,0.0,-999.0,98,-99.99,,,0.00,Acu-Link.com,2013-11-29 07:44:00,
2013-11-29 00:59:00,10.8,10.3,29.99,ENE,67,0.0,-999.0,98,-99.99,,,0.00,Acu-Link.com,2013-11-29 07:59:00,
2013-11-29 01:15:00,9.9,9.5,30.00,NE,45,0.0,-999.0,98,-99.99,,,0.00,Acu-Link.com,2013-11-29 08:15:00,
2013-11-29 01:30:00,10.4,9.9,30.00,NE,45,2.2,-999.0,98,-99.99,,,0.00,Acu-Link.com,2013-11-29 08:30:00,
2013-11-29 01:45:00,11.3,10.8,30.01,NNW,337,3.2,-999.0,98,-99.99,,,0.00,Acu-Link.com,2013-11-29 08:45:00,
2013-11-29 02:00:00,11.7,11.2,30.00,West,270,0.0,-999.0,98,-99.99,,,0.00,Acu-Link.com,2013-11-29 09:00:00,
2013-11-29 02:15:00,10.8,10.3,30.01,WNW,292,0.0,-999.0,98,-99.99,,,0.00,Acu-Link.com,2013-11-29 09:15:00,
2013-11-29 02:30:00,8.8,7.0,30.02,WNW,292,0.0,-999.0,92,-99.99,,,0.00,Acu-Link.com,2013-11-29 09:30:00,
2013-11-29 02:45:00,7.9,6.1,30.02,WNW,292,0.0,-999.0,92,-99.99,,,0.00,Acu-Link.com,2013-11-29 09:45:00,
2013-11-29 03:00:00,8.1,7.7,30.02,NE,45,0.0,-999.0,98,-99.99,,,0.00,Acu-Link.com,2013-11-29 10:00:00,
2013-11-29 03:16:00,7.7,7.3,30.02,WSW,247,0.0,-999.0,98,-99.99,,,0.00,Acu-Link.com,2013-11-29 10:16:00,
2013-11-29 03:31:00,7.2,6.5,30.02,NE,45,0.0,-999.0,97,-99.99,,,0.00,Acu-Link.com,2013-11-29 10:31:00,
2013-11-29 03:46:00,7.3,6.9,30.02,ENE,67,0.0,-999.0,98,-99.99,,,0.00,Acu-Link.com,2013-11-29 10:46:00,
2013-11-29 04:01:00,7.5,7.1,30.02,ESE,112,0.0,-999.0,98,-99.99,,,0.00,Acu-Link.com,2013-11-29 11:01:00,
2013-11-29 04:16:00,6.4,5.3,30.03,North,0,0.0,-999.0,95,-99.99,,,0.00,Acu-Link.com,2013-11-29 11:16:00,
2013-11-29 04:32:00,5.7,3.9,30.03,ESE,112,0.0,-999.0,92,-99.99,,,0.00,Acu-Link.com,2013-11-29 11:32:00,
2013-11-29 04:47:00,5.0,2.5,30.04,NNE,22,0.0,-999.0,89,-99.99,,,0.00,Acu-Link.com,2013-11-29 11:47:00,
2013-11-29 05:02:00,5.2,4.3,30.05,NNW,337,2.7,-999.0,96,-99.99,,,0.00,Acu-Link.com,2013-11-29 12:02:00,
2013-11-29 05:18:00,6.3,5.9,30.05,East,90,0.0,-999.0,98,-99.99,,,0.00,Acu-Link.com,2013-11-29 12:18:00,
2013-11-29 05:33:00,5.9,5.5,30.06,NE,45,2.2,-999.0,98,-99.99,,,0.00,Acu-Link.com,2013-11-29 12:33:00,
2013-11-29 05:48:00,5.9,5.2,30.06,North,0,0.0,-999.0,97,-99.99,,,0.00,Acu-Link.com,2013-11-29 12:48:00,
2013-11-29 06:03:00,5.0,3.2,30.07,ESE,112,0.0,-999.0,92,-99.99,,,0.00,Acu-Link.com,2013-11-29 13:03:00,
2013-11-29 06:18:00,3.9,1.9,30.07,ENE,67,1.7,-999.0,91,-99.99,,,0.00,Acu-Link.com,2013-11-29 13:18:00,
2013-11-29 06:33:00,4.3,3.2,30.09,NE,45,2.7,-999.0,95,-99.99,,,0.00,Acu-Link.com,2013-11-29 13:33:00,
2013-11-29 06:48:00,4.3,3.0,30.08,ENE,67,0.0,-999.0,94,-99.99,,,0.00,Acu-Link.com,2013-11-29 13:48:00,
2013-11-29 07:03:00,3.7,1.4,30.09,East,90,0.0,-999.0,90,-99.99,,,0.00,Acu-Link.com,2013-11-29 14:03:00,
2013-11-29 07:19:00,3.2,0.5,30.10,East,90,0.0,-999.0,88,-99.99,,,0.00,Acu-Link.com,2013-11-29 14:19:00,
2013-11-29 07:34:00,3.2,0.7,30.10,NNE,22,0.0,-999.0,89,-99.99,,,0.00,Acu-Link.com,2013-11-29 14:34:00,
2013-11-29 07:49:00,3.6,1.6,30.10,East,90,0.0,-999.0,91,-99.99,,,0.00,Acu-Link.com,2013-11-29 14:49:00,
2013-11-29 08:04:00,9.9,9.5,30.11,SE,135,0.0,-999.0,98,-99.99,,,0.00,Acu-Link.com,2013-11-29 15:04:00,
2013-11-29 08:20:00,12.6,11.4,30.11,East,90,0.0,-999.0,95,-99.99,,,0.00,Acu-Link.com,2013-11-29 15:20:00,
2013-11-29 08:35:00,15.8,15.3,30.12,East,90,0.0,-999.0,98,-99.99,,,0.00,Acu-Link.com,2013-11-29 15:35:00,
2013-11-29 08:50:00,16.9,16.2,30.11,North,0,0.0,-999.0,97,-99.99,,,0.00,Acu-Link.com,2013-11-29 15:50:00,
2013-11-29 09:05:00,17.1,14.4,30.11,ENE,67,1.7,-999.0,89,-99.99,,,0.00,Acu-Link.com,2013-11-29 16:05:00,
2013-11-29 09:20:00,18.5,15.6,30.11,East,90,0.0,-999.0,88,-99.99,,,0.00,Acu-Link.com,2013-11-29 16:20:00,
2013-11-29 09:35:00,21.7,17.9,30.11,SSW,202,0.0,-999.0,85,-99.99,,,0.00,Acu-Link.com,2013-11-29 16:35:00,
2013-11-29 09:51:00,22.8,17.6,30.10,South,180,2.7,-999.0,80,-99.99,,,0.00,Acu-Link.com,2013-11-29 16:51:00,
2013-11-29 10:06:00,23.9,17.8,30.10,ESE,112,1.7,-999.0,77,-99.99,,,0.00,Acu-Link.com,2013-11-29 17:06:00,
2013-11-29 10:21:00,26.2,19.1,30.09,ESE,112,2.7,-999.0,74,-99.99,,,0.00,Acu-Link.com,2013-11-29 17:21:00,
2013-11-29 10:36:00,26.8,19.3,30.08,SSW,202,1.7,-999.0,73,-99.99,,,0.00,Acu-Link.com,2013-11-29 17:36:00,
2013-11-29 10:52:00,27.3,20.4,30.08,SSE,157,3.2,-999.0,75,-99.99,,,0.00,Acu-Link.com,2013-11-29 17:52:00,
2013-11-29 11:07:00,29.5,20.6,30.07,North,0,2.2,-999.0,69,-99.99,,,0.00,Acu-Link.com,2013-11-29 18:07:00,
2013-11-29 11:22:00,30.0,21.1,30.06,WNW,292,3.2,-999.0,69,-99.99,,,0.00,Acu-Link.com,2013-11-29 18:22:00,
2013-11-29 11:37:00,31.1,21.4,30.04,South,180,0.0,-999.0,67,-99.99,,,0.00,Acu-Link.com,2013-11-29 18:37:00,
2013-11-29 11:53:00,33.3,22.8,30.03,ESE,112,3.2,-999.0,65,-99.99,,,0.00,Acu-Link.com,2013-11-29 18:53:00,
2013-11-29 12:08:00,33.8,22.6,30.03,South,180,2.7,-999.0,63,-99.99,,,0.00,Acu-Link.com,2013-11-29 19:08:00,
2013-11-29 12:23:00,34.0,22.4,30.02,NNE,22,3.2,-999.0,62,-99.99,,,0.00,Acu-Link.com,2013-11-29 19:23:00,
2013-11-29 12:39:00,34.7,22.3,30.01,South,180,2.7,-999.0,60,-99.99,,,0.00,Acu-Link.com,2013-11-29 19:39:00,
2013-11-29 12:55:00,36.1,22.8,30.00,ESE,112,0.0,-999.0,58,-99.99,,,0.00,Acu-Link.com,2013-11-29 19:55:00,
2013-11-29 13:10:00,36.1,23.6,29.99,ESE,112,2.2,-999.0,60,-99.99,,,0.00,Acu-Link.com,2013-11-29 20:10:00,
2013-11-29 13:26:00,37.0,24.8,29.98,NNW,337,3.7,-999.0,61,-99.99,,,0.00,Acu-Link.com,2013-11-29 20:26:00,
2013-11-29 13:41:00,37.0,24.0,29.97,ESE,112,3.2,-999.0,59,-99.99,,,0.00,Acu-Link.com,2013-11-29 20:41:00,
2013-11-29 13:57:00,36.7,23.7,29.97,NNW,337,1.7,-999.0,59,-99.99,,,0.00,Acu-Link.com,2013-11-29 20:57:00,
2013-11-29 14:12:00,38.5,24.6,29.96,South,180,2.2,-999.0,57,-99.99,,,0.00,Acu-Link.com,2013-11-29 21:12:00,
2013-11-29 14:27:00,36.9,23.9,29.95,NNE,22,2.2,-999.0,59,-99.99,,,0.00,Acu-Link.com,2013-11-29 21:27:00,
2013-11-29 14:43:00,37.0,24.4,29.95,North,0,0.0,-999.0,60,-99.99,,,0.00,Acu-Link.com,2013-11-29 21:43:00,
2013-11-29 14:58:00,36.7,24.1,29.95,NNE,22,2.2,-999.0,60,-99.99,,,0.00,Acu-Link.com,2013-11-29 21:58:00,
2013-11-29 15:13:00,35.6,23.9,29.95,NNE,22,4.7,-999.0,62,-99.99,,,0.00,Acu-Link.com,2013-11-29 22:13:00,
2013-11-29 15:29:00,36.0,23.9,29.95,West,270,2.2,-999.0,61,-99.99,,,0.00,Acu-Link.com,2013-11-29 22:29:00,
2013-11-29 15:44:00,35.1,23.4,29.94,NNW,337,3.2,-999.0,62,-99.99,,,0.00,Acu-Link.com,2013-11-29 22:44:00,
2013-11-29 15:59:00,34.7,23.4,29.95,NE,45,2.7,-999.0,63,-99.99,,,0.00,Acu-Link.com,2013-11-29 22:59:00,
2013-11-29 16:14:00,33.8,23.7,29.95,NNE,22,1.7,-999.0,66,-99.99,,,0.00,Acu-Link.com,2013-11-29 23:14:00,
2013-11-29 16:29:00,32.7,23.3,29.95,NNE,22,2.2,-999.0,68,-99.99,,,0.00,Acu-Link.com,2013-11-29 23:29:00,
2013-11-29 16:44:00,31.1,23.1,29.95,NNE,22,2.7,-999.0,72,-99.99,,,0.00,Acu-Link.com,2013-11-29 23:44:00,
2013-11-29 17:00:00,30.2,22.9,29.96,NNE,22,2.7,-999.0,74,-99.99,,,0.00,Acu-Link.com,2013-11-30 00:00:00,
2013-11-29 17:15:00,28.9,22.6,29.96,NW,315,2.7,-999.0,77,-99.99,,,0.00,Acu-Link.com,2013-11-30 00:15:00,
2013-11-29 17:30:00,25.2,19.9,29.97,SW,225,0.0,-999.0,80,-99.99,,,0.00,Acu-Link.com,2013-11-30 00:30:00,
2013-11-29 17:45:00,23.5,19.4,29.97,NNE,22,0.0,-999.0,84,-99.99,,,0.00,Acu-Link.com,2013-11-30 00:45:00,
2013-11-29 18:01:00,22.6,19.9,29.97,SSE,157,0.0,-999.0,89,-99.99,,,0.00,Acu-Link.com,2013-11-30 01:01:00,
2013-11-29 18:16:00,22.1,18.6,29.98,NNE,22,1.1,-999.0,86,-99.99,,,0.00,Acu-Link.com,2013-11-30 01:16:00,
2013-11-29 18:31:00,20.7,17.7,29.98,ENE,67,0.0,-999.0,88,-99.99,,,0.00,Acu-Link.com,2013-11-30 01:31:00,
2013-11-29 18:46:00,19.2,17.0,29.98,NE,45,0.0,-999.0,91,-99.99,,,0.00,Acu-Link.com,2013-11-30 01:46:00,
2013-11-29 19:01:00,18.0,16.8,29.99,NE,45,0.0,-999.0,95,-99.99,,,0.00,Acu-Link.com,2013-11-30 02:01:00,
2013-11-29 19:18:00,18.0,17.5,29.99,NE,45,0.0,-999.0,98,-99.99,,,0.00,Acu-Link.com,2013-11-30 02:18:00,
2013-11-29 19:33:00,17.1,15.9,30.00,SSE,157,0.0,-999.0,95,-99.99,,,0.00,Acu-Link.com,2013-11-30 02:33:00,
2013-11-29 19:48:00,15.8,15.1,30.00,NNE,22,0.0,-999.0,97,-99.99,,,0.00,Acu-Link.com,2013-11-30 02:48:00,
2013-11-29 20:04:00,15.1,14.6,30.00,NE,45,0.0,-999.0,98,-99.99,,,0.00,Acu-Link.com,2013-11-30 03:04:00,
2013-11-29 20:19:00,15.1,14.6,30.02,North,0,0.0,-999.0,98,-99.99,,,0.00,Acu-Link.com,2013-11-30 03:19:00,
2013-11-29 20:34:00,13.8,13.3,30.00,ESE,112,0.0,-999.0,98,-99.99,,,0.00,Acu-Link.com,2013-11-30 03:34:00,
2013-11-29 20:49:00,13.3,12.8,30.01,NE,45,0.0,-999.0,98,-99.99,,,0.00,Acu-Link.com,2013-11-30 03:49:00,
2013-11-29 21:04:00,13.1,12.6,30.02,NNW,337,0.0,-999.0,98,-99.99,,,0.00,Acu-Link.com,2013-11-30 04:04:00,
2013-11-29 21:19:00,12.6,12.1,30.02,ESE,112,0.0,-999.0,98,-99.99,,,0.00,Acu-Link.com,2013-11-30 04:19:00,
2013-11-29 21:35:00,12.6,12.1,30.02,SW,225,0.0,-999.0,98,-99.99,,,0.00,Acu-Link.com,2013-11-30 04:35:00,
2013-11-29 21:50:00,12.7,12.2,30.03,ENE,67,0.0,-999.0,98,-99.99,,,0.00,Acu-Link.com,2013-11-30 04:50:00,
2013-11-29 22:05:00,13.5,13.0,30.03,NNE,22,0.0,-999.0,98,-99.99,,,0.00,Acu-Link.com,2013-11-30 05:05:00,
2013-11-29 22:21:00,13.3,12.8,30.03,NNE,22,1.7,-999.0,98,-99.99,,,0.00,Acu-Link.com,2013-11-30 05:21:00,
2013-11-29 22:36:00,12.9,12.4,30.04,NE,45,1.1,-999.0,98,-99.99,,,0.00,Acu-Link.com,2013-11-30 05:36:00,
2013-11-29 22:51:00,12.7,12.2,30.04,East,90,0.0,-999.0,98,-99.99,,,0.00,Acu-Link.com,2013-11-30 05:51:00,
2013-11-29 23:07:00,12.4,11.9,30.04,NE,45,0.0,-999.0,98,-99.99,,,0.00,Acu-Link.com,2013-11-30 06:07:00,
2013-11-29 23:22:00,12.0,11.5,30.05,NNE,22,0.0,-999.0,98,-99.99,,,0.00,Acu-Link.com,2013-11-30 06:22:00,
2013-11-29 23:37:00,11.1,10.6,30.05,NNW,337,0.0,-999.0,98,-99.99,,,0.00,Acu-Link.com,2013-11-30 06:37:00,
2013-11-29 23:52:00,11.1,10.6,30.06,NE,45,2.2,-999.0,98,-99.99,,,0.00,Acu-Link.com,2013-11-30 06:52:00,